Regional Weather Roundup
Issued by NWS

Home | Current Version | Previous Version | Graphics & Text | Print | Product List | Glossary On
Versions: 1 2 3 4 5 6 7 8 9 10 11 12 13 14 15 16 17 18 19 20 21 22 23 24 25 26 27 28 29 30 31 32 33 34 35 36 37 38 39 40 41 42 43 44 45 46 47 48 49 50
000
ASUS43 KLOT 171500
RWRIL

ILLINOIS REGIONAL WEATHER ROUNDUP
NATIONAL WEATHER SERVICE CHICAGO/ROMEOVILLE IL
900 AM CST WED DEC 17 2014

NOTE: "FAIR" INDICATES FEW OR NO CLOUDS BELOW 12,000 FEET WITH NO
SIGNIFICANT WEATHER AND/OR OBSTRUCTIONS TO VISIBILITY.

* THESE STATIONS ARE NOT UNDER NWS QUALITY CONTROL. THEY ALSO MAY NOT
  REPORT WEATHER SUCH AS PRECIPITATION OR FOG.

ILZ001-002-007-009-015-016-024-171600-
NORTHWEST ILLINOIS

CITY           SKY/WX    TMP DP  RH WIND       PRES   REMARKS
MOLINE         CLOUDY    23  16  74 NW10      30.31R WCI  12
STERLING*      CLOUDY    25  16  68 NW12      30.28R WCI  14
$$

ILZ003-004-008-010-011-017-018-171600-
NORTH CENTRAL ILLINOIS

CITY           SKY/WX    TMP DP  RH WIND       PRES   REMARKS
ROCKFORD       CLOUDY    25  16  68 NW10      30.26R WCI  15
$$

ILZ005-006-012>014-019>023-171600-
NORTHEAST ILLINOIS

CITY           SKY/WX    TMP DP  RH WIND       PRES   REMARKS
CHICAGO-OHARE  CLOUDY    25  17  72 NW10      30.22S WCI  15
CHICAGO-MIDWAY CLOUDY    26  18  71 W13       30.24R WCI  15
AURORA         CLOUDY    26  16  65 NW12      30.25R WCI  16
WAUKEGAN       CLOUDY    25  16  68 W12G17    30.20R WCI  14
DUPAGE AIRPORT CLOUDY    25  17  72 NW13      30.22S WCI  14
WHEELING       CLOUDY    26  17  68 W9        30.23F WCI  17
NORTHERLY ISL    N/A     26  19  75 NW10        N/A  WCI  16
$$

LMZ740>746-171600-
SOUTHERN LAKE MICHIGAN

STATION/POSITION SKY/WX   TEMP    WIND        PRES    VSBY  WAVE
                          AIR SEA DIR/SP/G                  HT/PER
                          (F)     (DEG/KT/KT) (MB)    (MI)  (FT/S)
WAUKEGAN HARBOR            26     300/ 13/ 19   N/A
HARRISON CRIB              25     280/ 18/ 21   N/A
BURNHAM HARBOR             26     300/ 10/ 14   N/A
CALUMET HARBOR             25     260/  7/ 11 1022.5R
$$

ILZ025>027-034>036-040-047-049-050-058-095>099-171600-
WEST-CENTRAL ILLINOIS

CITY           SKY/WX    TMP DP  RH WIND       PRES   REMARKS
QUINCY         CLOUDY    22  16  78 N12       30.34R WCI  10
MACOMB*        CLOUDY    20  17  87 NW12      30.36R WCI   8
$$

ILZ028>032-037-038-041>044-048-051>054-059>061-171600-
CENTRAL ILLINOIS

CITY           SKY/WX    TMP DP  RH WIND       PRES   REMARKS
DECATUR        CLOUDY    23  18  81 NW10      30.33R WCI  12
PEORIA         CLOUDY    22  14  71 W12       30.33R HAZE    WCI  10
LINCOLN*       CLOUDY    23  18  82 NW5       30.35R WCI  17
SPRINGFIELD    CLOUDY    24  17  74 NW9       30.34R WCI  14
TAYLORVILLE    NOT AVBL
$$

ILZ033-039-045-046-055>057-062-063-171600-
EAST-CENTRAL ILLINOIS

CITY           SKY/WX    TMP DP  RH WIND       PRES   REMARKS
CHAMPAIGN      CLOUDY    22  18  85 NW10      30.31R FOG     WCI  11
MATTOON        CLOUDY    24  19  81 NW12      30.30F WCI  13
$$

ILZ079-100>102-171600-
SOUTHWEST ILLINOIS

CITY           SKY/WX    TMP DP  RH WIND       PRES   REMARKS
BELLEVILLE     CLOUDY    32  24  74 NW6       30.35R WCI  26
CAHOKIA*       CLOUDY    32  24  72 W6        30.36R WCI  26
$$

ILZ064>066-069>071-074>076-080>082-084>086-088>090-092>094-171600-
SOUTH-CENTRAL ILLINOIS

CITY           SKY/WX    TMP DP  RH WIND       PRES   REMARKS
CARBONDALE     CLOUDY    31  23  72 NW7       30.35R WCI  24
MARION         CLOUDY    32  25  74 NE9       30.35R WCI  24
MT. VERNON     CLOUDY    30  21  69 N3        30.34R
$$

ILZ067-068-072-073-078-083-087-091-171600-
SOUTHEAST ILLINOIS

CITY           SKY/WX    TMP DP  RH WIND       PRES   REMARKS
LAWRENCEVILLE  CLOUDY    30  23  75 NW12      30.33F WCI  20
$$

ABBREVIATIONS USED IN REMARKS
   TC - TEMPERATURE IN CELSIUS
  WCI - WIND CHILL INDEX
   HX - HEAT INDEX
  VSB - VISIBILITY
$$




USA.gov is the U.S. government's official web portal to all federal, state and local government web resources and services.